User: anonymous   Login
Location: Unspecified
(0.0000°N, 0.0000°E)
Time: 12:22:16
(UTC+00:00)
Language:

Courier 1B Rocket - Orbit

View from above orbital plane
View from above orbital plane
View from above satellite
View from above satellite

Ground track
Ground track

The orbit data is extracted from the following two-line orbital elements,

1    59U 60013B   17266.53372039 +.00000106 +00000-0 +19547-4 0  9995
2    59 028.2492 304.2074 0189114 190.4661 169.1910 13.52952938811356
Epoch (UTC): 23 September 2017 12:48:33
Eccentricity: 0.0189114
inclination: 28.2492°
perigee height: 921 km
apogee height: 1202 km
right ascension of ascending node: 304.2074°
argument of perigee: 190.4661°
revolutions per day: 13.52952938
mean anomaly at epoch: 169.1910°
orbit number at epoch: 81135

The dashed part of the orbit path shows where the satellite is in the earth's shadow,  

DLR